Theta_e
329 331 330 328 327 327 328 328 328 330 332 333 332 328 325 323 325 334 338 336 338 338 338 343 341 342 342 340 341 343 347 350 349 350 350 351 354 354 356 355 356 357 354 350 350 350 351 351 351 351 351 350 352 353 354 355 355 355 354 354 355 357 357 357 357 356 356 357 357 356 356 355 356 355 356 356 353 353 353 352 353 354 354 354 352 351
329 329 328 329 329 328 328 328 327 327 330 331 330 326 325 324 326 334 338 336 337 336 335 342 341 341 344 340 342 346 348 348 348 349 350 352 356 353 356 357 356 357 355 353 352 350 351 351 351 350 350 350 351 353 355 355 355 355 355 354 355 357 357 357 357 358 356 357 356 356 356 355 355 355 356 355 353 352 353 352 353 353 354 354 353 350
328 327 328 331 331 329 329 329 326 327 329 328 329 325 320 324 328 332 336 336 336 335 335 341 339 338 343 340 341 347 348 348 348 350 351 353 355 354 355 356 355 356 356 356 354 351 350 351 351 350 350 350 351 353 354 355 354 355 355 354 355 356 357 357 357 358 357 357 356 356 355 355 355 355 355 354 353 352 352 353 353 353 354 354 354 352
323 326 329 330 330 330 331 330 328 327 327 328 328 322 318 324 324 322 329 336 336 336 337 339 337 337 342 341 341 346 348 348 348 350 350 351 354 355 353 353 355 356 357 356 355 353 351 350 351 350 349 350 351 352 354 354 354 355 355 355 356 357 357 357 358 358 358 357 357 356 356 354 354 354 354 354 353 352 352 352 353 353 354 353 353 354
326 328 329 328 330 332 331 331 331 326 324 326 328 325 321 325 324 322 329 336 334 334 338 337 329 330 341 341 340 342 346 348 349 351 352 352 354 354 353 353 353 355 357 357 355 353 351 350 350 350 350 351 351 352 353 353 354 354 355 354 356 356 357 357 358 358 358 357 356 356 355 354 354 354 354 355 353 353 352 353 353 353 353 353 354 355
329 330 330 329 329 331 330 330 331 327 322 322 328 329 327 327 328 327 331 330 324 323 334 333 319 322 338 340 340 339 340 346 349 350 351 353 356 354 354 355 353 355 357 356 356 354 353 350 349 351 351 352 353 352 353 353 352 355 355 355 355 356 357 357 358 358 357 356 355 355 354 353 354 355 354 354 353 352 353 355 354 353 353 353 354 356
329 330 330 328 329 331 331 329 329 330 323 318 326 329 330 329 329 328 328 322 316 318 333 334 323 322 331 333 342 344 338 345 348 350 353 353 355 355 354 354 353 355 356 355 355 354 354 352 349 351 352 352 353 353 353 352 352 354 355 355 355 355 356 356 357 357 356 355 354 354 354 353 353 355 354 352 353 353 352 354 354 353 354 353 355 356
331 331 330 329 328 329 328 327 329 331 322 319 327 329 328 329 327 328 326 319 319 323 330 331 327 323 321 330 344 345 341 347 350 351 353 353 356 355 354 354 354 356 355 354 354 354 354 353 350 352 352 352 353 353 354 353 353 354 354 354 356 356 356 356 356 357 355 354 354 353 353 354 352 353 354 351 352 353 352 354 354 353 354 354 355 356
331 331 329 328 327 325 327 328 329 330 325 323 329 329 328 328 328 330 325 319 321 321 319 324 324 321 319 331 344 344 340 342 348 352 355 356 356 355 354 354 355 356 355 353 353 355 354 353 351 351 353 352 354 354 354 355 354 353 355 355 355 356 355 356 356 355 355 353 354 353 353 354 352 352 355 353 351 354 354 354 354 354 354 354 356 356
330 329 329 327 325 325 327 328 327 327 326 326 328 330 331 330 330 329 325 319 319 317 314 318 319 318 319 326 335 336 334 337 346 351 354 357 356 356 355 354 354 354 355 354 353 354 353 351 352 353 354 353 354 355 355 356 356 354 356 356 355 356 356 356 355 354 354 353 354 354 352 353 353 352 355 355 352 352 355 354 353 355 355 355 356 357
328 329 329 327 325 326 327 327 326 326 326 327 328 329 328 328 330 328 325 319 316 314 314 316 316 317 318 322 328 332 333 337 341 346 352 356 355 356 355 354 354 354 354 354 353 355 353 352 352 353 355 355 355 356 356 357 357 356 357 357 356 356 356 356 355 354 354 354 353 354 353 353 354 354 355 357 356 353 356 356 354 355 356 356 357 357
326 326 328 327 326 327 327 328 328 328 327 327 330 327 320 321 321 319 319 317 314 313 314 317 317 314 313 321 330 335 339 340 338 343 353 356 354 355 354 353 353 354 355 355 354 356 356 355 354 354 355 356 355 357 358 357 359 358 358 358 357 356 357 357 356 355 354 354 354 354 354 353 355 355 354 356 358 355 355 357 355 355 357 357 357 357
323 325 327 327 327 328 326 326 326 327 328 328 327 321 315 315 315 313 314 314 312 312 314 317 317 313 313 323 336 339 340 340 335 341 351 354 354 354 354 354 353 354 355 354 356 357 356 357 356 354 355 357 356 358 358 359 360 360 359 360 358 358 358 357 356 356 354 354 354 354 355 354 354 356 355 355 358 357 355 357 357 356 357 358 358 358
318 324 325 326 328 327 326 323 319 321 325 325 322 315 314 314 314 315 315 313 312 313 313 317 317 312 312 323 339 341 337 340 337 339 350 352 354 353 354 354 352 354 355 355 356 357 356 357 356 353 354 356 358 358 359 359 360 361 360 360 359 358 358 357 357 356 355 355 355 354 355 355 355 357 356 355 357 359 357 357 358 357 356 357 359 358
314 318 324 324 325 327 328 326 322 324 324 325 327 321 316 314 313 314 313 312 314 315 313 314 314 311 311 321 336 338 335 336 335 337 347 352 352 353 353 354 354 355 355 356 356 355 356 356 355 353 353 356 358 358 359 360 360 362 361 361 360 359 359 359 358 357 356 355 356 355 355 356 357 357 357 357 357 358 359 357 357 358 357 357 358 358
313 315 324 326 326 327 328 326 328 327 321 324 329 322 315 317 316 314 314 314 314 315 315 312 312 316 321 329 338 336 334 335 334 335 346 351 353 352 353 354 354 354 355 356 355 356 357 355 353 353 352 356 358 359 360 361 361 362 362 362 361 360 359 359 359 358 356 356 356 356 355 355 357 357 357 358 357 358 359 358 357 358 358 358 358 359
312 315 326 328 327 328 328 327 329 325 321 322 322 316 319 326 322 314 314 315 313 314 317 313 312 317 321 326 331 333 332 333 332 332 340 348 352 352 353 355 354 353 353 354 355 356 357 356 354 353 353 356 358 358 360 361 362 363 362 363 362 361 360 359 360 359 358 357 356 357 357 356 357 357 357 358 358 358 359 359 358 357 357 358 358 359
317 316 326 328 325 327 328 328 329 328 326 321 315 318 324 327 323 317 315 316 315 314 315 313 312 314 314 318 327 331 331 331 331 330 332 342 350 351 352 352 352 352 352 352 355 356 357 357 355 353 353 356 357 357 359 361 362 363 363 363 363 362 361 360 359 360 358 357 357 357 357 357 357 357 356 356 357 357 358 360 360 358 358 358 359 359
321 315 321 328 327 327 329 327 325 327 330 325 320 324 325 317 314 316 314 315 317 315 314 312 312 312 312 316 323 326 327 329 331 331 329 337 347 349 349 351 351 352 351 352 353 354 355 356 354 354 354 356 358 357 358 361 362 363 364 364 364 362 361 361 360 359 360 359 358 358 357 357 357 357 356 356 357 357 357 358 360 361 359 358 360 360
326 318 318 327 329 326 327 324 318 320 327 327 326 327 325 318 315 317 314 314 316 317 317 315 313 314 320 324 325 325 328 330 331 335 330 335 347 349 347 350 351 351 352 352 352 354 355 354 354 353 354 356 357 357 358 361 362 363 364 365 364 364 363 362 361 360 360 360 358 358 358 358 357 357 357 357 357 357 357 356 358 361 361 360 360 361
327 322 316 325 329 323 321 323 321 321 324 323 321 319 318 319 320 319 316 314 315 317 318 319 316 318 329 333 328 328 331 330 333 340 337 335 344 349 347 349 352 351 351 352 352 354 353 354 354 353 353 354 356 359 359 361 362 362 364 365 365 365 364 363 362 361 360 359 359 359 358 358 358 356 357 357 358 358 357 356 357 359 362 362 361 362
327 325 318 318 321 316 319 327 328 327 327 325 321 318 317 317 316 315 316 314 312 313 316 318 317 324 339 337 332 330 331 332 332 339 342 339 344 349 347 348 351 351 351 351 352 353 354 354 353 352 353 353 356 361 361 360 363 362 364 365 366 365 365 364 364 362 361 360 360 360 358 358 357 357 357 358 358 358 357 357 357 357 360 362 362 362
327 329 322 317 319 321 324 329 329 327 329 329 326 325 324 320 314 311 314 316 313 311 314 313 314 329 350 345 337 333 331 333 330 334 340 340 342 350 349 347 350 352 350 350 351 351 353 353 353 354 354 353 357 362 361 361 362 363 363 365 365 366 366 365 365 362 361 362 361 361 360 359 358 357 357 358 358 358 358 358 357 356 357 359 361 362
327 329 324 320 322 326 329 328 328 330 329 326 325 327 325 322 320 318 321 323 315 312 314 313 313 327 350 348 340 336 334 332 332 334 337 340 343 350 349 345 348 351 352 350 350 351 352 352 352 356 356 356 359 362 363 362 363 363 363 364 364 366 366 366 365 363 363 362 362 362 360 359 359 358 358 358 359 359 359 358 358 357 357 357 358 361
325 328 329 328 324 321 323 326 324 326 327 325 326 327 326 326 325 322 324 325 318 313 314 315 315 325 350 358 346 340 337 332 332 335 336 337 343 348 350 347 348 350 352 351 351 353 353 353 356 358 359 359 359 363 364 362 363 363 363 364 365 366 366 366 366 365 363 363 362 363 362 360 360 359 359 359 359 359 359 359 359 358 356 356 356 358
322 325 330 333 329 322 322 322 319 320 324 325 326 326 325 326 324 321 320 317 319 320 317 315 317 326 344 353 344 339 340 335 333 338 342 341 344 348 349 349 347 349 351 351 352 353 355 358 363 365 366 363 362 364 364 363 363 363 362 363 365 367 367 367 367 366 364 364 363 362 362 361 360 359 359 359 359 359 359 359 359 359 357 356 357 358
320 325 328 333 333 329 327 330 331 326 321 319 323 324 325 326 325 324 318 316 325 327 319 324 331 327 330 340 341 339 339 337 336 346 354 360 363 361 353 349 351 350 348 350 351 353 359 362 366 369 368 365 363 364 366 364 363 362 363 363 364 367 368 368 368 367 365 364 363 362 362 361 360 360 359 359 359 358 358 359 359 359 359 358 357 358
319 324 327 330 332 332 331 333 336 329 322 319 321 322 324 325 325 322 316 321 336 327 318 334 344 328 328 341 346 343 342 341 344 349 355 359 367 367 355 350 352 347 346 352 353 355 360 363 367 371 370 366 364 364 366 365 365 364 363 364 364 366 369 369 369 368 366 365 363 362 362 361 360 360 359 359 358 357 357 359 358 358 359 359 358 359
317 321 325 325 326 329 331 332 332 333 329 326 324 323 324 324 322 319 319 328 338 328 326 347 349 334 336 342 343 346 346 346 345 348 351 353 358 360 354 351 350 349 359 364 356 355 360 361 366 370 371 367 365 364 367 366 366 365 365 365 365 366 368 369 369 367 367 366 364 362 362 361 360 360 360 360 358 358 358 358 359 358 358 358 359 358
315 321 324 322 323 327 330 332 332 331 330 329 328 326 326 326 322 321 324 330 336 333 340 357 350 338 337 336 337 344 346 344 343 343 347 350 353 356 354 352 352 358 373 373 361 359 364 365 368 371 372 370 366 364 367 367 366 366 366 366 365 366 368 369 369 369 367 367 365 364 362 362 361 360 360 360 359 359 359 359 359 358 357 358 359 358
314 320 321 321 323 326 329 332 332 331 330 327 328 330 329 327 324 323 324 328 333 330 335 347 344 339 337 336 339 348 348 343 342 342 343 344 348 353 352 351 355 362 371 373 371 375 380 379 379 377 375 372 366 364 366 368 368 366 366 367 366 366 367 368 370 369 368 369 367 365 363 362 361 360 360 360 360 361 360 359 360 358 357 359 359 360
314 316 317 320 325 326 326 329 329 329 329 324 325 330 330 326 323 323 324 325 332 332 330 334 335 340 345 343 341 347 346 342 342 345 346 345 346 346 345 349 353 359 366 371 377 385 387 385 386 382 376 370 366 365 365 366 368 368 367 368 367 366 367 367 369 369 369 369 368 367 366 363 362 361 360 359 360 361 361 360 359 358 358 358 359 361
313 315 315 319 325 327 325 327 328 326 326 324 325 329 332 331 329 324 324 329 334 333 331 333 339 350 350 342 337 341 340 340 344 346 348 350 347 345 345 346 349 353 362 372 378 380 379 380 382 381 376 370 366 366 365 366 367 368 367 367 369 368 367 367 367 369 368 369 368 368 367 366 364 362 361 361 360 361 362 361 360 359 359 358 359 361
313 314 315 319 325 325 323 325 328 326 325 328 331 332 334 334 332 327 324 326 331 332 337 344 351 355 352 345 342 342 340 341 343 344 350 351 348 345 344 344 349 355 361 367 370 373 375 379 382 377 370 367 367 366 366 365 366 367 367 367 368 368 367 367 367 367 369 369 368 369 368 367 366 364 362 363 361 361 361 361 360 359 359 359 359 360
313 313 315 319 323 324 327 333 333 327 328 332 333 335 334 331 333 332 331 333 334 331 335 344 346 350 350 346 344 344 343 342 341 343 347 348 349 352 353 354 356 354 358 369 376 382 384 384 384 378 369 366 367 366 366 366 366 366 367 366 367 367 367 367 367 367 369 369 368 369 369 369 367 366 365 364 363 362 362 362 362 360 359 360 359 360
312 313 315 318 321 326 336 341 336 329 332 333 333 335 335 334 337 334 335 341 345 341 338 339 343 346 346 341 340 342 340 336 338 343 345 346 352 359 361 365 364 361 365 375 383 387 384 377 375 373 365 362 362 362 362 363 364 365 366 365 366 366 366 366 365 367 369 368 368 369 369 369 368 368 367 365 365 364 363 363 363 362 360 360 360 361
311 313 316 318 321 326 330 333 332 328 330 332 334 336 333 335 338 337 336 341 346 345 344 340 338 340 339 337 339 340 337 338 345 353 356 357 359 361 362 363 363 362 362 365 369 373 373 367 365 364 360 357 358 359 361 362 362 363 364 365 366 366 366 366 365 365 367 369 369 369 370 370 370 369 368 367 367 366 365 364 364 363 363 361 360 360
311 313 316 319 322 322 324 328 329 326 327 330 333 335 332 331 333 336 341 344 344 342 345 345 342 344 342 340 338 337 341 350 357 360 360 362 361 360 360 360 358 360 360 359 361 364 367 367 364 361 359 357 358 359 359 362 363 362 362 363 365 366 367 367 366 365 367 369 370 369 369 370 370 369 369 368 368 367 366 366 365 364 364 363 362 361
311 312 314 317 319 320 324 331 331 326 328 332 333 333 333 334 331 336 345 345 342 341 346 347 346 347 348 347 345 342 346 356 362 359 355 359 360 359 360 360 358 357 358 360 361 362 366 370 367 364 365 363 363 366 365 363 365 365 365 364 364 365 366 367 366 365 366 369 370 370 371 371 372 371 370 370 369 369 369 367 366 366 366 366 364 363
312 314 314 315 318 322 326 330 329 328 330 330 330 332 334 334 332 343 349 346 341 340 345 346 345 346 345 347 349 348 351 357 360 356 351 353 357 357 359 360 359 358 357 360 363 364 366 368 365 366 368 365 366 369 369 369 369 368 368 367 366 364 364 365 366 365 365 366 368 371 371 371 372 373 372 372 371 371 370 370 369 368 367 367 366 365
313 315 314 315 316 319 325 326 325 328 330 328 329 332 333 334 341 350 349 347 339 340 345 344 343 344 343 345 347 349 350 351 351 351 350 350 352 355 357 359 358 358 358 360 361 363 364 364 364 365 366 365 367 369 368 368 370 369 368 367 368 367 364 362 365 365 365 365 367 370 371 371 372 373 373 373 373 372 372 371 370 370 369 369 369 368
316 316 315 316 315 316 324 329 327 329 329 327 328 329 331 341 349 347 347 343 337 340 344 341 341 343 343 345 346 346 346 344 345 347 348 349 353 356 357 357 357 356 358 358 358 357 362 364 365 365 363 364 368 369 367 366 366 367 367 367 368 369 366 363 363 365 365 366 367 369 371 371 372 374 374 374 374 374 374 372 372 371 370 370 370 370
316 315 315 316 316 317 322 327 331 334 331 325 328 331 333 341 344 345 345 341 335 337 340 339 339 341 343 346 346 344 344 344 344 346 347 348 352 355 356 358 357 355 357 357 356 355 360 363 363 362 363 362 364 367 368 367 367 365 366 366 366 368 368 366 364 364 365 366 366 369 371 371 372 374 375 375 375 374 374 374 373 372 372 371 371 370
318 319 319 319 318 319 323 327 335 338 331 323 327 330 331 336 339 340 341 337 332 334 337 337 338 338 340 344 344 342 343 344 344 345 346 348 349 352 353 356 356 356 356 357 356 355 357 360 361 362 362 361 362 363 365 368 370 368 369 370 369 367 368 368 365 365 366 366 366 369 370 371 372 374 375 376 375 374 375 375 373 373 372 372 372 371
320 322 325 324 322 322 325 329 332 332 325 321 326 328 327 330 333 332 332 330 329 333 334 334 336 337 338 341 343 343 344 344 345 344 345 346 347 349 351 354 354 355 355 356 356 355 355 357 360 361 360 359 360 361 362 365 369 368 368 369 369 370 369 368 368 368 367 366 368 369 371 372 372 374 375 375 375 375 375 374 374 373 372 372 372 372
318 319 321 322 322 321 323 325 326 325 323 322 323 324 324 326 328 328 328 329 330 330 330 329 332 335 336 337 340 343 343 344 344 344 344 346 347 349 351 354 354 354 354 356 356 355 356 357 358 360 359 357 357 358 359 361 363 364 364 365 368 370 369 368 370 371 368 368 368 368 371 373 372 373 374 374 374 375 375 375 374 373 373 373 372 371
317 318 318 319 320 321 323 324 322 323 324 323 323 323 324 325 326 326 328 330 329 327 327 328 329 331 333 336 338 340 342 343 344 344 345 346 346 349 352 354 355 354 353 354 355 355 356 357 358 358 358 356 355 355 356 357 359 360 362 363 364 366 369 370 371 371 371 370 370 370 371 373 374 373 373 372 373 374 374 375 374 373 373 373 372 372
316 318 318 319 320 320 321 322 321 322 324 323 323 324 325 326 326 326 326 327 327 326 326 326 327 327 330 333 337 339 341 343 345 346 345 346 348 351 353 354 354 353 352 352 354 354 354 356 357 357 356 354 354 354 354 357 357 358 361 365 366 366 368 370 370 370 371 371 370 370 370 372 373 374 372 372 372 373 374 374 374 372 373 373 373 372
315 317 317 318 319 318 319 321 324 325 324 323 322 323 324 325 325 325 325 326 328 328 327 325 325 326 327 330 335 338 340 343 346 347 346 347 349 352 352 353 351 351 352 353 352 352 353 355 356 355 354 353 353 354 354 355 356 357 359 364 368 370 369 370 371 371 372 371 370 370 370 371 372 370 367 365 365 365 367 369 371 370 370 370 371 371
315 316 316 317 318 319 319 321 323 322 320 321 322 322 322 323 323 324 325 326 327 329 327 326 326 327 328 329 332 337 340 342 345 348 348 349 351 351 350 350 349 348 352 353 352 352 353 353 353 353 353 353 352 353 354 354 354 356 357 361 365 369 369 370 370 369 370 371 370 370 369 367 364 362 361 361 360 358 356 357 362 365 364 365 366 368
316 317 317 317 318 318 318 319 319 318 318 319 320 322 323 323 322 324 325 325 326 327 326 326 328 330 331 330 330 335 341 343 343 345 347 348 347 346 345 346 348 349 352 352 352 352 353 352 352 352 352 352 352 352 352 352 352 353 355 357 360 364 366 367 365 363 364 366 366 366 363 359 355 354 354 355 355 353 350 346 347 351 353 356 358 360
Wind_Speed
8 6 8 11 10 11 13 13 12 10 11 13 12 9 10 10 8 10 14 13 10 12 11 11 12 13 12 9 15 19 21 22 19 16 13 12 13 13 14 14 14 13 12 16 21 25 30 30 31 34 33 30 33 35 35 37 35 32 36 36 33 35 35 33 31 30 29 29 27 24 24 23 22 23 21 19 18 18 18 19 18 18 16 14 14 16
8 9 12 14 12 12 13 14 13 13 14 14 12 9 7 9 9 12 15 13 10 10 11 13 13 13 12 9 11 16 21 22 22 19 16 16 15 14 15 16 15 12 10 14 16 20 28 29 30 33 33 32 33 35 37 39 37 33 35 36 34 36 36 35 33 32 31 30 29 27 24 24 22 23 22 19 18 18 18 19 20 20 17 16 14 15
9 13 16 14 11 12 13 13 15 15 15 12 10 9 7 6 7 11 14 13 9 8 9 15 13 11 13 11 11 19 21 19 22 23 19 19 18 15 15 15 15 14 13 15 14 15 23 28 31 31 31 34 34 36 38 39 39 35 34 35 34 36 37 37 34 33 33 31 30 28 25 24 22 21 22 20 18 18 18 18 19 21 19 16 15 15
10 12 14 13 11 14 14 14 15 14 12 10 8 8 8 9 8 6 10 12 9 6 8 13 11 8 11 11 10 17 19 17 21 24 20 19 19 18 17 16 16 17 16 16 15 14 17 23 29 29 30 33 33 34 36 38 38 36 36 36 35 36 37 37 36 33 33 30 29 27 24 22 21 21 21 20 19 19 19 20 20 21 20 18 16 16
12 8 11 14 14 15 15 14 14 11 9 11 11 10 8 11 13 10 8 11 10 7 9 11 8 6 9 11 10 11 15 16 18 21 20 19 19 19 18 17 18 18 17 18 17 15 15 17 24 29 31 32 33 34 36 39 39 36 38 39 37 37 36 37 37 35 32 29 28 26 23 21 20 21 24 22 22 22 20 23 25 23 21 19 16 17
14 9 12 17 16 16 16 14 15 12 8 10 14 14 13 12 14 15 13 9 6 6 9 11 6 5 7 11 11 10 11 15 18 20 20 19 18 18 17 16 17 16 17 18 18 17 16 16 20 27 31 31 32 35 37 40 40 37 38 41 39 38 37 38 38 37 34 31 30 29 26 25 22 23 28 27 26 26 22 23 27 25 22 20 17 18
10 11 12 16 17 18 17 13 15 14 8 7 12 15 17 15 14 16 16 9 4 4 9 13 7 3 5 9 10 10 10 12 19 21 20 19 17 17 17 16 16 16 15 16 17 18 17 16 18 23 30 32 32 35 37 38 39 37 38 40 40 39 38 38 38 38 37 33 32 33 31 29 27 25 29 30 28 28 25 22 25 25 22 21 20 19
10 15 14 15 17 16 14 11 13 15 10 6 9 14 18 18 16 16 14 9 4 3 6 12 10 4 4 7 9 11 10 9 19 22 18 18 19 19 19 18 18 18 17 16 17 18 18 17 18 23 31 34 33 35 36 37 38 38 38 39 39 38 38 39 39 39 39 36 33 34 32 30 30 26 26 31 29 27 27 24 23 25 24 23 22 21
11 17 17 16 15 11 11 12 13 15 12 7 9 13 15 17 17 15 12 8 5 4 5 7 9 6 4 7 8 11 10 8 16 23 21 20 22 21 20 20 20 19 18 17 18 19 19 19 22 27 32 33 33 35 37 37 38 39 38 39 38 37 38 39 41 40 39 38 35 34 33 30 29 27 24 28 30 27 26 26 24 25 27 26 24 23
9 14 16 15 12 10 11 13 13 15 12 9 11 11 10 14 15 13 10 7 5 5 5 5 6 5 3 6 8 8 9 8 11 19 20 21 21 20 19 20 19 17 16 16 17 18 20 23 26 29 30 32 32 34 37 36 37 38 37 38 38 37 37 38 41 41 40 40 36 34 35 32 30 29 24 25 30 29 26 28 27 26 28 29 25 24
9 10 14 14 11 9 11 13 15 15 13 10 11 10 8 8 9 9 8 5 5 5 7 7 6 5 4 5 8 9 11 11 9 13 18 20 21 20 19 19 19 17 15 16 16 16 20 25 28 28 29 31 32 33 35 35 36 38 37 38 39 38 37 37 41 42 41 40 39 36 36 34 31 31 27 25 29 31 28 28 30 28 29 30 27 25
13 11 10 11 12 11 10 12 14 15 15 11 8 7 6 4 4 5 5 6 7 6 6 8 8 7 5 5 7 9 12 15 12 12 21 25 23 20 18 18 19 17 16 17 16 15 16 19 22 24 26 30 31 31 34 36 36 37 38 38 39 38 38 38 39 42 41 40 40 38 37 36 34 32 32 28 29 32 31 29 30 30 29 30 29 26
12 14 10 9 13 15 11 9 11 12 13 11 7 6 5 3 3 4 4 6 7 5 5 6 8 6 4 5 7 8 8 12 14 12 22 27 24 20 18 18 17 16 17 17 15 15 15 15 16 19 23 28 30 31 35 37 36 37 38 39 40 40 40 39 39 41 41 41 40 39 38 38 36 34 34 33 30 32 33 30 29 30 29 30 30 29
9 11 14 13 11 15 15 8 7 9 10 11 8 6 6 5 5 5 4 4 4 5 6 6 7 5 4 5 6 8 6 8 12 12 20 26 24 22 20 19 17 16 17 16 15 15 15 16 16 19 24 27 29 32 34 36 37 37 37 39 41 41 42 41 41 42 42 42 41 41 40 39 38 36 35 35 32 31 33 32 30 30 31 31 31 32
8 9 13 16 8 12 17 11 7 8 8 11 9 6 7 6 5 4 4 3 2 3 6 8 6 4 4 4 5 8 8 8 8 8 17 24 23 21 20 19 18 18 18 16 16 16 16 17 18 21 25 27 29 31 33 35 37 37 37 39 41 41 42 42 41 42 43 43 42 42 41 39 38 37 36 36 35 32 33 34 32 31 31 32 31 31
10 9 9 14 10 11 17 14 9 9 8 8 8 7 7 6 4 3 3 4 3 1 3 6 5 2 3 4 5 9 9 11 12 7 14 23 23 22 20 19 20 18 17 17 16 17 17 17 18 22 26 27 29 31 32 34 37 38 38 39 41 42 42 42 42 43 45 45 43 42 41 40 39 38 36 36 35 34 33 34 35 33 32 32 31 30
8 8 8 13 16 15 16 14 13 10 6 6 9 9 6 6 5 3 2 3 3 2 3 4 5 4 4 7 5 8 10 13 16 12 12 22 24 23 20 19 19 17 17 17 16 17 18 17 18 24 27 28 31 33 34 36 38 38 38 39 40 41 41 42 42 42 43 44 43 43 42 41 40 39 38 37 37 36 34 33 35 35 32 31 31 30
6 6 8 13 18 19 15 15 15 13 8 6 9 9 5 5 6 4 2 3 4 5 4 7 9 7 6 6 6 10 12 13 17 16 11 16 21 21 18 18 19 18 18 18 17 16 17 18 19 24 29 32 36 39 38 37 37 37 37 38 39 39 40 42 42 42 41 41 41 42 42 43 42 42 41 39 39 37 34 33 33 34 34 32 32 31
8 6 8 14 18 17 14 14 13 14 14 9 7 9 7 5 7 5 3 4 5 5 4 8 12 9 7 7 9 14 16 13 15 17 15 14 20 21 18 18 20 19 18 16 16 15 15 17 18 23 29 33 37 39 37 36 36 36 37 38 40 41 42 43 42 41 40 40 39 39 41 43 43 42 41 39 38 36 35 34 33 33 34 34 32 32
10 5 5 11 17 16 11 11 10 12 15 11 7 9 8 5 5 5 4 2 4 4 4 6 8 7 6 9 14 18 17 14 12 14 15 15 20 21 18 18 19 18 17 16 16 16 16 17 20 26 31 34 35 36 35 35 37 38 38 39 40 41 41 41 41 40 39 39 39 39 40 41 41 41 40 38 37 37 37 37 35 34 34 34 34 32
8 7 6 9 12 14 10 10 12 13 13 11 8 8 9 6 4 5 4 3 3 3 3 4 4 5 5 7 14 17 15 15 12 10 12 13 18 21 20 20 19 17 17 17 16 16 17 17 20 26 32 33 33 34 35 36 37 38 38 38 40 41 40 41 41 40 40 40 41 41 40 41 41 40 39 38 38 38 38 38 37 35 34 34 35 34
5 5 7 9 7 9 11 13 14 15 13 11 8 6 9 9 6 6 6 5 5 3 3 3 4 5 5 4 10 16 14 14 13 10 9 9 16 21 20 20 20 18 17 17 16 16 16 16 17 22 27 29 29 32 35 36 36 37 38 39 40 40 40 41 41 41 41 40 41 42 42 42 42 41 40 38 38 38 39 38 38 37 35 33 34 35
9 4 7 9 7 8 11 14 16 17 15 12 9 6 8 9 8 6 5 6 6 5 5 3 3 5 6 5 8 15 13 12 12 12 8 7 14 21 19 18 18 18 17 17 17 16 15 16 16 19 24 27 27 31 35 35 35 37 38 38 38 39 40 42 42 43 42 40 40 41 41 41 41 41 40 38 38 38 38 38 38 37 36 35 35 35
12 5 4 7 7 9 11 12 17 18 15 12 11 9 7 9 9 7 4 6 6 5 6 3 3 5 7 7 3 10 10 11 11 10 9 7 12 19 20 18 17 17 18 17 15 15 14 15 16 16 18 21 24 28 33 34 34 35 36 37 37 39 40 41 42 42 42 41 41 40 39 39 39 39 39 39 38 38 38 37 37 37 37 37 36 35
10 5 3 4 4 6 7 7 13 15 13 9 10 12 11 10 12 9 4 5 5 7 8 4 3 5 6 7 7 8 9 13 12 11 9 7 12 18 19 18 18 17 18 18 15 14 15 15 16 15 15 18 22 27 31 33 33 33 35 36 35 37 39 40 40 40 41 41 40 39 39 38 38 38 39 40 39 39 38 37 36 37 38 37 36 35
7 7 4 3 3 4 3 3 6 11 11 7 9 15 15 14 13 10 5 4 4 7 9 6 4 6 5 5 7 9 9 9 8 8 6 5 10 15 16 16 17 17 17 19 18 16 16 15 15 16 15 18 22 25 28 31 32 32 33 33 33 34 35 37 37 37 39 39 39 39 40 39 39 39 40 41 40 39 39 37 36 36 37 38 36 35
5 6 7 6 6 6 6 5 5 9 13 11 11 14 17 17 13 9 7 5 4 6 6 6 6 5 3 2 4 6 8 6 4 6 6 5 7 11 13 13 14 15 16 17 17 17 17 15 16 17 16 18 23 26 27 30 31 30 30 32 33 33 33 34 35 36 37 38 38 38 40 41 41 41 41 42 41 40 38 38 37 36 37 38 37 36
6 5 7 8 9 10 12 13 11 8 14 17 16 14 16 20 18 10 8 8 6 7 5 7 9 8 5 4 2 3 6 6 5 8 9 6 7 10 14 15 15 15 14 14 16 18 18 17 16 16 16 18 23 25 26 28 31 31 31 32 34 33 33 34 36 36 37 38 38 39 41 42 43 43 42 42 41 40 39 38 38 38 37 38 38 38
6 6 9 11 13 13 13 14 13 9 6 12 16 16 14 19 22 17 9 9 9 7 5 7 11 10 6 6 5 6 7 7 8 10 9 8 8 9 13 18 17 13 9 9 13 16 17 17 16 16 16 17 20 23 24 27 30 31 31 32 34 34 34 35 37 37 37 38 39 41 42 42 42 42 42 41 41 41 40 39 39 39 38 38 39 40
6 6 13 16 14 14 11 10 13 11 6 1 9 17 16 16 22 20 11 9 11 9 7 8 11 10 7 6 6 6 5 7 9 9 8 9 10 11 11 14 13 11 9 9 12 13 13 15 16 15 16 16 18 21 23 25 29 31 31 32 34 35 35 36 37 38 38 38 39 40 41 42 41 41 41 40 41 41 41 40 40 40 40 40 40 40
8 8 15 16 9 9 8 7 12 13 7 4 3 9 12 11 17 20 15 10 9 9 9 9 10 7 6 7 5 3 6 9 10 10 10 9 10 12 12 11 11 11 11 10 11 10 10 11 11 11 14 15 17 21 23 24 28 30 31 31 34 35 35 35 36 38 38 38 39 40 40 41 41 41 41 41 41 42 42 41 40 40 40 40 39 39
9 9 13 11 6 6 7 6 11 13 8 7 6 4 3 4 9 17 16 10 7 10 10 8 7 6 6 6 6 8 9 9 10 10 9 8 8 11 11 9 10 11 11 11 10 10 10 11 11 12 12 13 16 21 22 23 26 29 30 31 33 35 36 35 34 37 38 38 37 38 39 40 40 40 41 41 41 41 42 42 40 39 39 39 39 38
8 9 9 9 6 7 10 11 11 9 7 5 5 2 1 4 5 12 16 12 6 9 9 6 5 6 6 9 10 11 11 11 10 8 8 8 9 10 10 8 7 9 10 10 10 10 10 10 10 11 12 13 17 21 23 25 26 28 31 32 32 33 35 34 33 34 36 37 37 38 38 39 39 40 40 41 41 40 40 40 40 39 39 39 39 38
10 9 7 6 5 7 13 14 8 4 3 3 1 2 1 3 6 5 13 14 10 6 7 6 6 4 8 10 10 11 12 11 9 8 8 8 8 9 9 9 8 7 8 8 8 8 8 8 7 9 12 16 19 21 22 24 25 28 30 31 32 32 33 34 32 31 34 36 36 38 38 38 39 39 39 39 40 38 38 38 40 40 39 38 37 37
11 10 6 4 4 6 9 9 3 1 4 4 3 4 2 1 2 5 8 3 6 6 6 10 8 5 10 10 8 10 11 11 11 10 9 9 9 10 10 9 8 7 6 7 7 6 6 7 6 6 9 12 15 16 18 19 21 23 27 29 30 31 32 33 32 29 31 34 36 36 38 38 38 38 38 38 38 37 37 37 38 39 39 37 37 38
10 7 5 5 4 4 4 3 0 3 6 7 4 4 3 1 2 7 13 15 13 10 2 10 11 8 10 11 10 9 11 13 13 11 12 12 13 13 13 13 13 11 8 8 9 7 7 9 9 8 8 7 8 12 15 19 20 20 22 25 28 30 30 31 31 29 29 32 35 35 36 38 37 37 37 36 36 36 37 37 37 37 38 37 36 37
10 6 4 4 4 4 4 3 3 3 6 6 5 6 4 1 3 6 8 12 19 21 12 3 13 13 10 12 12 10 11 14 12 11 14 15 14 14 15 15 15 15 12 11 11 11 12 13 14 12 10 8 5 4 7 13 18 21 21 21 23 25 27 28 28 28 28 30 34 35 35 37 37 36 36 35 35 36 36 36 36 35 36 36 36 36
11 7 4 4 3 4 5 4 3 2 2 6 11 14 11 3 5 9 10 10 16 22 20 10 10 11 9 11 11 10 11 13 10 8 11 13 13 14 14 14 13 12 11 10 10 12 14 15 14 12 10 7 5 4 2 2 9 15 19 21 22 22 23 25 26 27 27 28 32 34 35 35 36 35 35 35 35 35 34 34 34 34 34 34 35 35
13 8 4 4 3 4 4 2 3 1 2 10 16 18 17 10 5 9 11 10 13 18 20 17 16 16 12 10 10 9 10 10 7 5 7 10 12 12 12 12 11 10 11 12 12 11 13 14 14 12 11 9 7 6 6 5 4 6 10 16 22 22 21 24 26 27 27 27 29 32 34 34 35 35 34 34 34 33 32 33 32 32 32 33 33 33
10 6 4 4 4 4 4 2 3 0 3 12 17 17 19 13 4 9 8 5 11 15 15 17 18 18 14 12 12 11 9 8 5 5 7 10 10 10 10 10 10 9 8 11 14 15 15 15 13 11 10 9 8 6 6 6 6 5 6 8 14 21 24 26 28 27 26 26 27 30 32 33 33 34 34 33 32 31 31 31 31 30 31 31 31 31
5 4 4 4 4 5 4 3 3 0 4 13 16 17 18 11 4 9 5 2 10 12 11 15 16 15 13 12 12 10 8 7 7 7 9 11 10 10 10 10 10 11 11 14 18 18 16 15 13 11 11 13 12 9 6 5 7 9 7 6 9 18 25 28 27 26 26 25 25 27 30 31 32 33 32 32 31 30 30 30 29 29 29 29 29 29
4 2 3 4 4 5 4 2 2 1 7 15 15 15 16 8 4 4 0 4 7 10 12 14 14 13 13 13 11 9 9 10 11 10 11 11 11 11 11 10 11 12 13 15 18 18 15 13 13 13 14 16 16 15 9 5 7 9 10 8 9 13 20 23 23 24 25 24 24 26 28 29 30 31 30 29 29 29 28 28 28 28 28 28 27 27
3 1 3 4 3 3 3 2 2 0 7 17 15 12 14 9 3 2 2 2 8 11 11 11 12 12 11 11 12 11 10 11 12 12 11 11 11 11 10 10 9 10 11 13 15 16 14 12 11 12 12 13 15 16 16 10 7 10 9 8 8 9 13 20 22 22 23 24 24 25 27 28 28 28 28 27 28 29 27 27 27 27 27 27 27 26
1 1 2 2 2 2 1 2 1 3 5 12 12 7 8 7 4 2 3 6 8 9 9 8 10 12 11 10 9 10 11 12 12 12 12 11 11 10 9 9 9 9 10 13 15 17 16 12 10 9 9 12 15 16 19 16 4 5 1 4 4 2 8 16 21 22 23 23 23 24 25 26 27 27 27 26 27 28 27 26 26 27 27 27 27 25
4 3 2 2 2 3 2 1 2 3 4 8 7 5 7 8 7 7 8 7 7 8 8 8 9 11 12 11 9 9 10 11 11 11 11 10 10 10 10 9 10 10 10 12 13 15 16 14 12 9 10 15 17 17 19 18 11 7 7 7 5 4 4 10 16 20 21 22 22 22 23 25 26 26 26 26 26 27 26 26 25 25 25 26 26 24
6 6 3 2 2 4 3 3 0 4 7 7 6 6 8 9 9 9 9 7 7 8 8 8 9 10 11 12 11 9 9 10 10 10 9 9 9 10 10 9 9 10 11 10 11 12 14 14 12 8 11 14 15 16 18 17 15 14 12 7 5 6 4 5 11 16 19 20 21 21 21 23 24 25 25 25 26 26 25 26 26 25 24 24 24 23
6 8 6 4 4 3 2 2 4 5 6 7 6 6 7 8 8 8 7 6 7 9 9 10 11 11 11 12 12 11 10 10 10 9 8 9 9 10 10 10 9 10 10 9 10 11 12 13 11 6 9 12 12 13 15 14 13 15 13 8 6 4 3 4 8 13 15 17 19 20 20 21 22 24 24 24 24 24 25 26 26 24 23 23 22 21
6 7 6 5 5 3 3 6 7 4 3 5 5 4 6 7 7 7 7 7 9 10 10 10 11 11 11 11 11 12 11 10 10 9 8 8 8 9 9 9 9 10 11 9 8 9 10 11 10 8 9 10 10 11 11 11 12 13 13 10 5 1 1 4 7 10 12 14 16 17 18 19 21 22 21 19 19 19 20 22 24 23 21 20 20 20
7 6 5 5 6 6 5 5 5 4 3 4 5 6 7 6 6 7 7 7 8 9 10 10 9 10 10 10 10 10 10 10 9 8 8 8 7 7 8 8 9 12 14 11 7 6 8 8 8 8 8 8 8 8 8 9 10 11 12 11 6 3 4 5 6 8 9 12 14 14 14 16 20 22 20 18 17 14 12 14 18 19 16 15 17 18
7 6 5 5 5 5 5 4 5 4 4 3 6 7 7 6 6 6 6 6 6 6 7 8 8 8 8 9 8 8 8 9 8 7 7 6 7 7 8 9 9 12 15 13 8 6 6 5 4 5 5 5 5 6 7 8 9 9 9 10 8 8 10 12 12 12 11 12 12 11 12 14 19 23 23 21 20 19 17 15 15 17 15 13 13 15
4 4 5 5 5 6 8 8 8 6 4 4 6 5 4 6 6 5 5 5 5 5 4 5 6 7 7 8 8 7 7 8 9 9 7 6 7 8 10 10 10 11 14 14 9 5 5 5 2 2 3 3 4 4 5 6 6 6 7 8 9 11 14 17 18 17 16 17 17 16 17 20 22 23 24 24 25 26 26 24 22 20 19 17 15 15
Wind_Direction
202 221 219 215 211 203 211 222 229 231 227 236 243 226 206 207 232 239 239 243 199 175 187 178 175 199 223 201 160 152 144 145 159 170 172 162 158 160 161 164 167 173 176 177 184 180 175 176 173 174 178 174 170 173 175 175 178 179 178 179 179 179 181 183 183 183 183 185 186 186 186 187 185 187 193 194 196 199 197 198 203 206 206 203 203 203
202 224 225 217 211 208 209 215 225 234 236 239 249 253 226 208 220 229 237 245 211 180 185 180 181 197 210 205 167 145 141 151 162 168 169 164 163 164 163 164 167 171 171 174 185 181 176 175 172 172 176 174 170 172 175 176 180 181 177 179 179 177 180 184 184 182 184 186 187 187 187 188 187 190 196 196 193 196 200 201 203 204 201 201 206 205
204 227 224 212 208 216 215 211 215 226 236 238 244 259 258 241 232 223 233 245 215 180 181 181 184 196 201 206 175 152 152 161 165 169 172 168 165 166 166 164 166 170 170 175 186 183 177 175 173 173 175 176 173 172 174 177 180 181 179 179 178 177 180 184 185 183 184 187 188 188 188 190 191 192 196 196 192 193 201 206 203 200 200 204 209 208
206 224 216 208 208 214 220 218 212 217 231 237 236 243 253 257 257 232 228 240 227 184 172 178 185 196 195 203 189 166 166 168 166 168 171 169 168 170 170 166 168 171 170 175 181 185 183 178 175 175 175 176 174 171 172 175 178 181 182 181 180 180 180 183 186 186 185 186 189 189 188 190 194 195 194 196 197 196 201 205 204 201 203 208 211 209
223 214 190 208 215 210 216 221 217 212 216 229 235 235 240 245 252 256 234 230 232 207 179 172 182 208 195 196 199 180 173 173 170 166 165 170 171 170 170 170 173 173 170 172 176 182 190 186 176 175 175 174 173 173 173 174 176 180 182 183 183 183 182 184 187 187 184 183 187 187 187 190 192 190 190 196 200 200 202 202 202 202 203 207 211 210
231 213 181 202 214 212 213 216 218 216 207 219 229 234 241 243 246 258 259 239 230 220 193 173 176 231 204 194 200 197 187 178 172 169 168 171 169 168 171 173 176 177 173 172 173 178 189 191 178 173 174 173 173 176 177 176 177 179 181 184 185 184 185 186 188 188 185 182 184 184 186 192 192 185 187 194 197 198 201 198 197 200 203 206 210 211
223 219 205 201 206 213 215 215 215 215 218 216 213 223 239 251 251 256 267 257 217 224 204 179 173 235 210 197 196 200 205 180 169 173 173 170 168 170 176 175 175 178 176 172 172 176 186 190 178 172 176 176 176 177 177 178 179 179 181 182 184 186 186 187 188 188 186 184 184 185 187 192 195 189 188 193 195 196 199 197 195 198 202 207 210 210
199 212 222 211 204 208 214 217 209 208 223 222 196 206 224 243 253 256 267 267 240 257 230 193 175 173 207 209 194 191 207 180 166 173 174 172 175 177 178 177 175 177 177 175 173 176 183 189 183 177 178 179 177 175 176 178 180 181 182 183 184 186 187 187 187 187 187 186 185 186 188 192 197 196 191 192 194 195 198 198 197 199 202 207 210 211
190 206 220 220 211 206 208 213 206 206 222 228 209 206 210 224 242 254 263 267 272 290 269 214 178 171 214 220 198 187 201 187 167 175 179 176 179 180 179 177 176 177 178 178 178 177 180 188 187 180 180 180 177 175 177 180 182 183 184 185 185 185 186 188 187 187 188 189 187 187 189 193 199 200 195 193 194 195 197 199 200 202 203 206 210 211
198 202 211 224 224 211 204 204 205 210 216 222 228 227 215 213 222 238 249 263 289 282 259 239 198 194 222 212 195 185 200 200 173 176 181 179 178 179 178 176 176 175 177 182 184 182 181 186 186 180 178 178 176 178 179 179 181 183 185 186 187 187 186 187 188 188 189 190 190 190 191 193 197 200 197 193 193 195 198 199 202 204 202 203 208 208
229 205 201 220 232 219 201 195 201 211 212 211 225 236 239 224 210 219 233 252 279 268 250 250 245 244 249 216 195 186 193 195 182 172 174 178 179 179 177 174 174 174 175 181 185 185 183 183 181 175 174 177 178 177 178 179 181 183 185 187 189 190 189 188 189 190 191 191 192 193 194 194 195 197 197 193 192 194 198 199 200 204 203 202 205 207
240 230 206 207 221 225 214 199 196 203 208 210 214 219 241 258 223 208 206 218 238 252 256 259 269 269 257 236 212 194 186 188 193 176 166 175 181 180 177 173 174 175 174 179 182 183 180 176 175 173 174 177 177 175 176 180 182 183 186 187 189 191 191 191 191 191 192 193 194 195 195 196 195 196 197 197 194 194 197 200 199 200 201 201 204 206
229 237 236 213 208 216 223 207 193 197 200 206 207 192 207 235 220 212 195 205 226 240 252 263 275 268 248 248 219 202 196 192 200 185 165 172 178 176 175 174 175 175 174 178 180 178 177 173 174 175 175 177 179 178 178 179 182 184 187 188 189 192 193 193 192 192 193 193 195 196 196 196 197 196 197 199 199 197 198 201 199 197 199 201 202 204
216 228 237 232 208 202 218 214 185 193 189 196 204 182 186 201 196 205 205 206 224 228 227 240 261 254 248 265 210 198 234 215 201 189 168 169 172 172 173 173 175 176 175 180 180 177 179 178 177 178 178 180 182 181 180 181 182 184 187 189 190 192 194 194 193 193 193 194 196 197 197 197 197 197 198 199 201 200 199 202 202 199 199 202 203 204
217 219 221 229 214 179 207 223 192 181 183 195 203 185 190 199 185 190 197 190 191 212 213 214 231 221 205 234 184 190 243 245 222 196 166 166 169 169 171 171 174 178 177 179 180 179 182 183 180 179 181 183 185 184 182 182 183 184 187 189 191 193 194 195 195 194 195 196 198 198 199 199 198 199 199 199 201 201 201 202 203 203 202 203 205 205
227 232 208 217 228 187 195 217 208 183 186 194 196 202 203 189 168 174 185 170 141 149 217 208 225 222 208 237 183 182 219 237 250 236 161 165 170 167 172 176 177 179 177 176 178 180 182 183 182 181 182 183 185 187 186 185 184 185 186 189 192 194 195 196 197 197 197 197 198 199 200 200 200 200 200 200 201 202 203 203 203 205 205 205 206 205
229 235 198 196 222 219 195 201 209 199 185 174 193 210 189 162 186 205 188 159 142 206 226 211 235 243 245 265 234 194 200 212 236 242 173 167 172 169 172 178 177 176 175 175 177 178 178 180 183 183 183 183 185 189 191 189 187 186 186 189 192 194 195 197 199 200 200 199 198 199 200 200 201 201 201 201 201 202 203 204 204 205 206 207 207 206
249 244 212 193 209 221 206 196 208 212 200 174 190 195 144 151 210 216 194 177 179 212 213 206 222 216 207 235 234 220 216 206 216 227 201 171 171 171 171 173 174 173 175 177 177 177 175 176 182 184 184 185 187 191 192 190 187 187 187 189 191 194 196 198 200 202 202 201 200 200 200 201 202 203 203 203 203 202 202 203 205 205 206 207 208 208
260 262 226 208 203 209 206 196 205 215 216 205 174 163 157 192 205 188 201 196 184 210 217 211 217 212 200 198 199 213 222 217 209 214 212 181 168 174 175 171 172 172 173 175 174 177 177 176 180 183 185 187 189 191 191 188 186 187 188 190 192 195 198 200 201 203 203 203 203 203 203 203 203 204 204 204 204 203 203 204 204 205 206 207 207 208
255 263 238 223 200 190 194 197 198 205 214 215 177 161 181 205 179 172 202 199 174 200 218 219 218 218 217 196 190 203 213 213 203 200 205 185 166 171 173 170 173 173 172 173 174 178 180 178 181 184 186 187 188 188 187 185 186 187 189 190 193 196 198 200 202 203 204 204 204 206 206 206 206 206 205 205 204 204 205 205 205 205 206 206 206 207
256 237 252 252 205 184 188 200 199 190 197 210 197 176 184 188 163 175 204 206 194 204 204 218 236 240 239 202 187 194 200 201 193 182 191 183 166 166 168 169 175 175 172 174 176 178 180 180 183 186 187 186 184 184 185 187 188 188 189 191 193 195 197 199 202 203 204 205 205 206 207 208 208 207 206 206 205 206 207 207 206 206 206 205 206 206
305 236 251 264 233 201 196 194 193 188 190 203 207 188 179 181 175 178 203 207 200 230 222 209 252 252 256 235 187 186 191 192 185 175 179 175 164 167 170 170 173 174 174 175 178 178 178 181 184 186 186 185 182 182 185 188 188 189 191 192 193 194 196 198 200 203 205 206 206 207 207 208 208 208 207 206 206 207 208 208 208 207 206 206 206 206
328 279 250 252 251 246 219 192 180 183 189 198 212 209 181 182 182 177 195 194 187 225 241 245 276 261 280 285 187 177 179 175 170 170 177 173 165 169 172 168 167 173 178 178 178 178 178 180 181 183 185 186 184 182 185 187 188 190 192 192 193 194 196 198 200 202 204 206 207 208 209 208 208 207 207 207 207 208 209 209 209 208 207 207 207 207
332 315 262 261 259 265 248 199 173 176 186 197 212 215 201 192 186 175 178 173 172 207 216 236 272 257 296 320 124 143 151 148 151 167 180 175 164 168 171 166 164 172 180 182 180 177 177 177 178 181 184 187 185 182 184 187 189 191 193 193 194 195 197 198 200 201 203 205 207 209 209 209 208 207 207 207 207 208 209 209 209 209 209 209 209 208
319 312 316 304 255 248 253 200 172 176 186 197 203 207 219 208 181 175 186 170 179 202 187 182 251 249 284 331 39 79 120 141 152 172 179 166 161 168 170 167 167 171 176 182 181 177 175 174 177 181 182 186 186 183 184 187 189 191 193 194 194 196 198 199 200 200 202 204 206 207 208 208 208 207 207 207 208 209 209 209 209 209 209 209 209 210
290 281 292 298 241 227 235 205 184 181 184 200 199 197 215 220 191 176 177 167 190 207 189 176 219 249 285 354 42 61 91 122 145 156 155 146 151 163 170 172 172 168 169 177 179 176 176 175 177 179 178 183 186 185 185 187 189 191 193 194 195 196 198 200 200 201 202 204 205 206 207 207 207 207 208 208 209 209 209 208 208 209 209 209 209 210
283 264 263 249 243 251 259 274 251 186 174 189 201 194 202 216 212 180 163 185 186 182 199 195 176 200 267 4 67 85 105 122 127 105 93 89 117 145 167 175 176 172 168 172 175 173 174 174 174 177 178 182 185 186 185 186 187 189 189 192 195 195 197 198 200 202 203 205 205 206 206 206 207 207 208 208 209 209 209 208 208 209 209 209 209 209
302 284 285 268 262 263 266 279 279 217 180 183 195 202 197 202 215 207 175 186 165 143 208 215 156 156 217 230 190 156 152 155 134 104 99 98 103 132 161 171 180 183 173 166 167 168 170 173 175 177 179 181 184 185 184 184 186 187 188 190 193 194 195 196 199 201 203 204 205 206 207 207 207 207 208 208 208 209 209 209 209 209 209 209 209 210
307 300 330 321 301 288 279 285 291 275 210 179 190 210 206 193 206 216 192 172 159 148 207 203 157 160 201 210 197 198 183 157 133 121 114 108 95 109 150 167 173 174 158 152 163 165 168 173 175 178 179 180 182 183 181 181 184 186 188 190 192 194 195 195 197 199 201 203 204 206 207 208 208 208 207 207 207 208 209 209 209 209 209 210 211 212
313 313 340 333 312 297 294 299 301 293 285 219 193 209 217 201 198 209 214 184 162 166 194 176 157 168 180 174 187 198 168 133 127 121 104 103 102 97 121 148 150 140 129 142 161 163 167 174 176 178 177 176 179 180 179 180 182 185 188 190 192 195 197 196 196 198 200 202 204 205 206 207 207 207 207 206 207 207 208 209 209 209 209 211 212 212
321 329 334 330 321 304 306 310 302 295 286 296 245 204 219 216 194 199 217 212 162 169 193 160 145 173 177 162 169 135 105 106 110 108 98 104 111 103 107 122 124 118 116 126 140 145 152 159 161 168 173 174 178 179 178 179 181 185 188 190 193 196 197 197 196 197 199 201 203 203 204 206 206 207 207 206 206 207 208 208 208 209 210 210 211 212
322 328 328 333 339 317 328 319 290 298 310 289 267 222 217 245 201 191 205 220 180 171 182 147 137 197 191 140 107 86 90 89 87 92 88 82 85 89 100 118 129 131 125 123 128 131 141 148 149 157 166 170 175 177 176 176 180 186 189 191 194 196 198 200 199 198 200 201 201 202 202 204 205 206 207 207 207 207 208 208 209 210 210 210 211 211
315 322 328 338 332 310 328 320 284 297 328 288 255 221 86 332 270 198 193 211 200 162 167 165 183 204 156 117 103 94 90 81 78 81 81 75 67 67 73 82 104 125 128 129 133 135 143 150 150 153 159 163 171 179 180 177 179 186 191 193 195 196 199 202 202 200 201 201 200 200 201 202 204 206 207 208 208 208 208 208 209 210 210 211 211 210
306 311 314 329 323 301 315 317 304 311 312 262 274 31 85 325 309 211 185 202 212 175 144 162 193 167 102 103 116 114 103 94 91 85 82 83 72 60 59 61 73 91 104 116 127 137 145 147 143 146 155 165 172 178 183 183 184 189 192 194 196 196 198 203 204 202 201 201 200 200 200 201 202 204 207 208 208 209 209 209 209 210 211 211 211 211
301 308 308 315 305 291 311 328 339 308 276 270 316 336 304 298 11 63 84 109 242 230 158 152 169 135 94 95 105 108 104 97 87 70 59 63 65 60 49 45 64 90 100 96 87 89 108 117 116 120 135 159 173 177 181 186 188 190 192 194 196 197 199 202 205 204 201 200 201 200 199 199 201 203 205 206 207 208 209 210 211 211 211 211 211 212
282 297 308 310 298 296 326 353 223 272 295 296 316 348 345 356 77 74 60 35 359 329 250 163 150 121 102 98 91 92 94 86 73 54 43 47 57 63 57 46 53 67 71 68 66 65 81 92 88 82 90 120 164 183 191 196 195 193 194 196 197 199 200 201 204 205 201 200 201 201 199 199 200 202 203 204 205 207 209 211 212 212 211 211 213 214
265 280 307 312 317 332 331 312 288 309 313 307 339 358 331 294 85 87 74 30 6 355 344 142 129 115 109 101 91 89 86 76 64 46 42 48 53 60 65 61 56 58 56 52 52 47 51 67 74 75 77 79 90 139 189 204 204 200 198 198 199 200 201 202 205 206 202 200 200 201 200 200 199 200 201 202 204 206 208 210 212 212 212 212 213 215
252 266 303 310 316 331 324 311 301 299 339 347 348 339 321 324 84 85 76 37 3 356 355 10 78 86 93 103 99 95 81 68 58 44 43 50 51 51 60 62 59 60 57 50 48 44 41 47 54 61 66 56 32 9 344 249 214 207 204 202 201 200 202 205 207 208 205 201 201 200 200 201 200 199 200 201 203 205 207 209 211 213 213 213 214 216
241 248 277 281 279 303 308 312 301 258 29 351 342 333 323 331 57 83 72 36 351 348 359 13 33 41 50 76 88 88 82 74 60 33 36 52 56 51 52 53 50 54 57 53 51 52 52 47 42 46 52 45 21 348 326 317 279 231 216 212 207 201 202 209 211 211 209 205 202 201 201 201 200 200 200 201 203 205 206 208 210 212 213 215 217 219
235 236 253 258 259 278 271 280 301 275 8 337 337 337 321 314 27 73 72 27 333 336 359 20 30 33 33 51 67 68 73 83 76 38 35 50 57 55 56 53 43 39 50 51 46 51 61 54 38 33 34 22 8 351 328 321 309 278 257 241 219 206 207 213 214 213 212 209 205 201 201 201 200 199 200 201 202 204 205 207 208 210 212 214 216 219
221 223 239 249 261 272 257 258 287 341 3 336 338 347 334 319 46 66 75 278 311 331 7 25 30 31 25 37 59 63 61 68 66 52 46 46 46 50 55 53 42 37 46 50 39 36 46 42 24 17 18 13 6 353 319 297 304 298 285 274 242 223 218 216 214 213 212 210 206 202 200 200 199 199 200 200 200 202 205 207 207 208 210 213 215 217
194 201 228 233 257 281 267 284 315 356 354 339 340 359 1 5 79 73 182 250 321 354 17 22 24 28 27 36 50 55 54 53 48 46 45 41 43 51 51 46 37 30 40 54 43 28 28 31 21 14 16 16 13 5 345 292 273 288 289 281 270 251 233 219 211 210 208 207 206 202 199 199 198 198 198 198 198 200 203 205 207 209 210 211 212 215
180 185 235 226 242 276 266 328 30 172 332 341 349 13 23 35 108 166 282 353 18 18 17 16 18 17 22 40 47 42 40 43 41 40 37 34 40 48 48 47 42 23 25 45 39 18 16 26 22 18 18 11 6 4 360 341 267 251 267 283 287 270 235 215 207 205 203 203 204 201 197 197 196 194 195 195 196 199 202 203 205 207 209 210 210 213
28 9 264 256 320 321 294 18 61 216 307 351 5 24 36 49 93 96 36 25 24 22 19 15 13 11 19 38 48 43 38 37 37 35 29 26 30 35 35 40 42 29 30 41 30 11 9 11 6 15 26 17 12 12 6 360 327 207 220 345 336 260 203 200 197 197 197 198 200 198 194 193 192 191 192 193 195 198 200 201 202 204 206 207 207 208
351 335 265 236 305 324 294 236 231 260 326 9 16 9 25 45 54 49 43 32 17 20 23 12 3 8 17 25 36 46 45 40 37 32 25 20 19 22 25 28 30 27 31 41 31 12 2 354 355 21 38 24 21 22 16 16 34 57 37 18 25 59 144 184 186 187 189 192 194 193 191 190 190 190 191 193 195 197 198 198 200 202 203 204 205 205
333 341 329 275 305 330 293 225 181 356 345 352 2 359 12 34 45 43 39 27 13 16 21 9 360 6 13 16 22 31 39 44 41 30 23 20 15 14 15 19 24 23 22 30 29 14 1 350 348 23 45 28 20 20 15 17 28 26 12 2 20 46 69 160 177 181 185 187 189 189 187 186 188 189 191 195 197 197 197 197 197 199 200 200 201 203
337 354 346 317 317 342 334 328 6 10 347 336 345 360 10 25 47 53 44 26 15 13 13 8 1 3 12 16 15 13 20 35 37 25 17 17 11 9 11 9 9 7 6 14 17 10 3 353 345 17 47 30 16 9 4 5 15 17 13 3 353 13 59 115 149 164 173 178 183 187 185 182 183 185 186 190 193 194 196 196 196 196 197 198 198 199
328 340 334 321 318 321 313 314 321 323 308 305 310 345 24 32 41 46 44 37 25 12 6 9 4 0 6 13 13 9 7 16 27 24 16 10 3 5 7 3 358 349 343 349 7 8 360 355 359 29 47 31 9 356 352 358 9 12 16 16 1 318 118 108 131 146 155 164 172 178 180 179 176 174 172 172 175 182 187 190 191 192 193 195 195 192
309 309 311 313 312 308 306 313 321 316 304 316 339 12 31 32 30 32 37 47 42 18 360 3 6 2 0 1 5 7 2 1 15 23 14 2 1 4 358 347 342 335 328 330 351 360 350 354 16 39 44 31 13 356 347 1 14 15 19 27 40 110 133 116 116 126 143 161 169 173 176 174 166 158 151 144 142 145 154 169 179 181 182 187 194 196
290 292 299 299 295 294 298 331 8 356 308 326 9 20 23 18 16 23 27 40 55 41 7 355 357 359 357 351 352 3 2 352 356 13 16 4 358 356 347 337 331 325 320 321 332 340 336 347 27 50 46 36 27 9 358 9 24 28 27 34 54 92 111 111 102 94 102 122 136 143 147 145 142 141 140 136 131 123 115 120 142 154 152 154 169 186
277 309 321 316 308 305 307 325 350 342 298 315 353 5 27 22 7 9 22 27 37 36 6 350 353 355 352 345 343 357 5 351 347 360 8 360 349 340 329 324 323 318 313 316 323 330 327 326 346 67 58 32 17 5 1 8 20 28 30 40 67 93 107 110 103 90 88 96 101 107 116 122 123 126 129 129 127 123 114 105 105 112 114 115 121 133